Location: Williams Lake
(52.1170°N, 122.1500°W)
Time: 12:44:46
(UTC-07:00)

Daily predictions for brighter satellites

Satellite Brightness Start Highest point End
(mag) Time Altitude Azimuth Time Altitude Azimuth Time Altitude Azimuth
Meteor 2-15 Rocket 4.5 20:35:59 10° N 20:42:08 81° E 20:48:12 10° SSE
Lacrosse 5 rocket 1.4 20:41:08 10° WNW 20:44:54 62° SW 20:48:30 10° SE
Cosmos 1461 3.1 20:40:52 10° NW 20:45:00 67° SW 20:48:58 10° SSE
Tiangong 1 3.2 20:45:02 10° SSW 20:46:32 13° S 20:48:02 10° SE
Meteor 2-14 Rocket 4.5 20:41:22 10° S 20:47:29 72° E 20:53:38 10° NNE
NOSS 3-4 (A) 4.3 20:41:41 10° NW 20:48:28 60° SW 20:55:40 10° SSE
NOSS 3-4 (C) 4.3 20:41:48 10° NW 20:48:36 61° SW 20:55:47 10° SSE
YAOGAN 6 4.3 20:47:20 10° ESE 20:50:01 19° ENE 20:52:44 10° NNE
Cosmos 1315 Rocket 3.5 20:46:29 10° SSW 20:50:28 61° WNW 20:54:31 10° N
Resurs 01 Rocket 3.9 20:47:09 10° SSW 20:50:58 28° W 20:54:50 10° NW
Cosmos 1656 Rocket 4.0 20:46:10 10° SW 20:51:45 75° WNW 20:57:18 10° NNE
Cosmos 1570 Rocket 4.2 20:47:04 10° S 20:52:09 50° ESE 20:57:14 10° NNE
CZ-4 DEB 2.8 20:49:16 10° SSE 20:52:22 61° ENE 20:55:30 10° N
EO 1 Delta rocket 3.8 20:48:02 10° NNE 20:52:39 69° E 20:57:33 10° S
USA 186 2.3 20:51:15 10° S 20:54:17 56° WSW 20:57:09 10° NNW
H-2A R/B 3.9 20:52:20 10° E 20:54:55 14° NE 20:57:28 10° NNE
Cosmos 1937 Rocket 4.1 20:51:01 10° NNW 20:56:00 42° NE 21:01:01 10° SE
Envisat 3.2 20:53:00 10° SE 20:57:57 55° ENE 21:02:56 10° N
Cosmos 2150 Rocket 4.2 20:57:24 10° NNW 21:02:31 57° ENE 21:07:35 10° SE
BREEZE-M DEB (TANK) 2.1 21:00:44 10° W 21:02:39 37° S 21:05:25 11° ESE
H-2A R/B 3.9 20:59:39 10° S 21:03:23 46° W 21:07:13 10° NNW
Meteor 1-12 Rocket 4.5 20:59:30 10° S 21:05:02 52° E 21:10:43 10° NNE
Cosmos 1934 Rocket 4.0 20:59:37 10° S 21:05:47 90° SE 21:12:05 10° N
Cosmos 2084 3.3 21:02:03 10° NW 21:06:02 82° NE 21:09:58 11° SE
Cosmos 2278 3.9 21:01:18 10° S 21:06:45 49° ESE 21:12:14 10° NE
Cosmos 1697 Rocket 3.8 21:02:54 10° SSE 21:07:04 22° E 21:11:15 10° NE
Cosmos 220 Rocket 3.9 21:03:19 10° NNW 21:07:35 87° ENE 21:11:49 10° SSE
Cosmos 1939 Rocket 3.0 21:05:34 10° SSE 21:09:40 70° ENE 21:13:51 10° N
ATLAS CENTAUR R/B 2.6 21:04:44 10° WSW 21:09:41 57° NW 21:14:28 10° NE
Iridium 4 Rocket 3.5 21:06:49 10° N 21:12:14 73° E 21:17:07 10° S
Cosmos 1544 Rocket 4.0 21:08:30 10° SSW 21:12:52 68° WNW 21:17:18 10° N
SPOT 1/Viking Rocket 4.4 21:08:45 11° ESE 21:13:13 34° ENE 21:17:53 10° N
Cosmos 2369 3.8 21:14:09 10° S 21:19:40 55° ESE 21:25:14 10° NE
Terra 3.6 21:19:09 10° E 21:22:12 18° NE 21:25:20 10° NNE
Cosmos 1346 Rocket 4.5 21:22:05 10° NNW 21:25:39 33° W 21:29:13 10° SSW
EP 2 4.3 21:23:37 10° SW 21:26:15 68° SE 21:29:24 10° NE
Cosmos 1980 Rocket 3.5 21:25:46 13° SE 21:28:48 20° E 21:32:50 10° NE
Cosmos 1898 Rocket 3.6 21:24:51 10° NNW 21:30:13 88° WSW 21:35:11 12° SSE
RESURS DK-1 2.4 21:28:05 10° NNW 21:32:14 70° NE 21:35:13 18° SE
ERS-1 Rocket 3.4 21:29:23 10° S 21:34:22 62° WSW 21:39:23 10° NNW
Meteor 1-21 4.5 21:28:54 10° N 21:34:33 55° ENE 21:39:14 15° SSE
ARGOS 3.6 21:31:04 15° SE 21:35:10 46° ENE 21:40:18 10° N
Cosmos 1666 4.3 21:37:38 17° E 21:38:12 17° E 21:40:45 10° NE
BREEZE-M DEB (TANK) 4.0 21:38:40 10° W 21:42:05 55° S 21:49:31 16° ESE
Cosmos 2173 Rocket 4.1 21:39:57 10° S 21:46:09 58° E 21:52:21 10° NNE
NOSS 2-1 (D) 3.9 21:43:25 10° SW 21:47:28 70° NW 21:52:29 10° NE
NOSS 2-1 (C) 3.9 21:44:26 10° SW 21:48:29 70° NW 21:53:31 10° NE
Cosmos 1500 3.0 21:44:52 10° S 21:48:37 76° E 21:52:25 10° NNE
Cosmos 1605 Rocket 4.5 21:42:52 10° SSW 21:49:10 65° WNW 21:55:24 10° N
Cosmos 2227 Rocket 3.7 21:44:19 10° NW 21:49:18 32° WSW 21:54:16 10° SSW
Cosmos 1825 Rocket 3.5 21:44:51 10° N 21:49:19 75° ENE 21:52:32 18° SSE
Cosmos 2263 Rocket 3.4 21:47:48 10° NNW 21:52:40 29° NE 21:56:22 15° E
Cosmos 2061 Rocket 4.0 21:46:54 10° S 21:53:07 64° E 21:59:19 10° NNE
Tsikada Rocket 4.4 21:47:00 10° N 21:53:14 49° ENE 21:57:24 21° SE
Cosmos 2100 Rocket 4.0 21:48:47 10° S 21:55:02 71° E 22:01:15 10° NNE
MetOp-B 4.1 21:51:33 14° SSE 21:56:08 88° WSW 22:01:33 10° NNW
Cosmos 468 Rocket 4.1 21:52:09 10° S 21:57:07 53° ESE 22:02:07 10° NNE
Cosmos 1953 Rocket 3.6 21:53:13 10° N 21:57:40 68° ENE 22:00:21 23° SSE
Cosmos 967 Rocket 4.5 21:52:07 10° NW 21:58:32 87° NE 22:02:46 23° SE
Cosmos 405 Rocket 4.2 21:55:43 10° NNE 21:58:43 21° ENE 21:59:40 20° E
Cosmos 1340 2.6 21:55:24 10° N 21:59:14 80° ENE 22:01:17 26° SSE
Cosmos 2322 Rocket 3.9 22:00:20 14° E 22:00:20 14° E 22:02:42 10° ENE
Cosmos 1814 Rocket 4.2 21:59:08 10° S 22:04:19 53° ESE 22:09:28 10° NNE
NOSS 2-1 (E) 4.3 22:00:26 10° WSW 22:04:34 60° NW 22:09:44 10° NE
Cosmos 2297 Rocket 3.6 22:00:09 10° NW 22:05:10 33° WSW 22:10:10 10° S
Cosmos 841 Rocket 4.3 22:04:41 25° SE 22:06:18 30° ESE 22:10:51 10° NE
Cosmos 2227 4.2 22:00:44 10° NNW 22:06:34 84° ENE 22:10:03 25° SSE
deb Chang Zheng 4 3.6 22:02:11 10° NNE 22:06:42 87° ESE 22:11:09 10° SSW
Cosmos 1656 3.6 22:01:34 10° SSW 22:07:09 71° ESE 22:12:42 10° NNE
H-2A R/B 2.8 22:03:40 12° S 22:07:17 46° W 22:11:18 10° NNW
Lacrosse 5 2.3 22:02:26 10° WNW 22:07:19 50° SW 22:09:59 25° SSE
Cosmos 1975 4.3 22:11:27 10° SW 22:15:20 39° WNW 22:19:15 10° N
SPOT 5 3.5 22:11:02 13° S 22:15:25 54° W 22:20:11 10° NNW
Cosmos 1758 Rocket 3.5 22:12:31 10° N 22:16:57 89° E 22:19:08 29° S
Cosmos 1743 2.7 22:16:41 20° S 22:19:20 87° W 22:23:18 10° N
USA 215 3.4 22:16:43 25° SE 22:20:42 66° SW 22:27:15 10° WNW
Tiangong 1 3.7 22:20:31 10° SW 22:20:46 11° SW 22:20:46 11° SW
YAOGAN 6 3.5 22:21:11 21° SSW 22:23:19 46° W 22:26:56 10° NNW
Lacrosse 5 rocket 3.6 22:21:58 10° WSW 22:23:23 12° SW 22:24:48 10° SSW
Cosmos 2228 3.4 22:29:55 40° ESE 22:30:30 43° E 22:34:35 10° NNE
Cosmos 1725 Rocket 4.0 22:26:55 25° SSE 22:30:34 62° E 22:36:44 10° NNE
Cosmos 1842 3.3 22:28:16 10° NNW 22:32:13 78° W 22:33:31 40° S
H-2A R/B 1.9 22:31:30 36° SE 22:33:33 70° ENE 22:38:28 10° NNW
Cosmos 372 Rocket 4.3 22:30:11 10° NNW 22:35:13 53° ENE 22:37:03 35° ESE
Cosmos 1459 Rocket 4.2 22:29:24 10° SSW 22:35:26 68° WNW 22:41:34 10° N
GEOS 3 Rocket 3.9 22:30:53 10° NE 22:35:44 41° SE 22:37:09 34° SSE
DELTA 2 DEB (DPAF) 4.1 22:34:23 41° SE 22:35:52 73° ENE 22:40:21 10° NNW
IGS 5A 3.7 22:35:41 43° ESE 22:36:35 53° ENE 22:40:40 10° N
Cosmos 2098 Rocket 3.9 22:36:06 19° S 22:41:14 79° E 22:47:01 10° NNE
Cosmos 2058 Rocket 3.0 22:40:15 38° S 22:41:56 78° E 22:46:29 10° NNE
CZ-4 R/B 3.8 22:38:53 10° NNE 22:43:34 62° ESE 22:44:58 42° SSE
Landsat 7 3.8 22:42:11 39° SSE 22:43:59 86° WSW 22:48:47 10° NNW
ASTEX 1 4.1 22:43:11 10° N 22:48:05 55° WNW 22:52:07 15° SSW
Cosmos 1707 3.7 22:44:43 10° N 22:48:21 34° ENE 22:48:25 34° ENE
ATLAS CENTAUR R/B 4.2 22:45:48 10° WNW 22:49:42 23° NNW 22:53:27 10° NNE
Cosmos 1697 Rocket 2.8 22:44:46 10° SW 22:50:26 79° WNW 22:56:07 10° NNE
SPOT 1/Viking Rocket 4.4 22:49:24 22° SSW 22:52:30 45° W 22:57:32 10° NNW
SL-16 R/B 2.9 22:53:37 33° ESE 22:53:37 33° ESE 22:58:32 10° NE
SL-08 RB Rocket 4.3 22:51:29 30° SSW 22:53:33 52° W 22:58:07 10° NNW
Cosmos 1606 Rocket 4.2 22:52:26 20° SSW 22:55:16 55° WNW 22:59:39 10° N
Meteor 2-5 Rocket 3.9 22:51:33 10° N 22:57:30 65° ENE 22:59:27 42° SE
Terra 1.7 22:58:02 49° S 22:59:21 86° WSW 23:04:10 10° NNW
Cosmos 2233 Rocket 4.0 22:57:06 38° SSE 22:59:25 64° E 23:05:35 10° NNE
CZ-4B R/B 3.4 22:56:51 10° NNE 23:01:38 79° WNW 23:03:53 31° SSW
Meteor 2-17 Rocket 4.4 22:59:57 39° SSE 23:02:11 67° E 23:08:12 10° NNE
SAR-Lupe-2 4.0 23:03:50 51° NE 23:03:50 51° NE 23:07:04 10° N
Meteor 1-15 Rocket 4.2 23:00:38 31° S 23:03:38 87° E 23:09:33 10° NNE
BREEZE-M DEB (TANK) 3.9 22:57:22 10° WSW 23:03:49 34° SSW 23:03:49 34° SSW
CARTOSAT-1 3.6 23:04:51 55° SSW 23:05:41 72° WSW 23:10:01 10° NNW
Cosmos 1844 Rocket 4.2 23:01:39 10° NNW 23:06:24 27° NE 23:09:14 18° E
Cosmos 836 Rocket 4.5 23:05:42 48° SSE 23:06:59 65° ESE 23:12:16 10° NNE
Cosmos 1980 Rocket 2.2 23:07:25 16° SSW 23:12:07 84° WNW 23:17:53 10° NNE
Cosmos 2360 Rocket 3.8 23:14:22 19° E 23:14:22 19° E 23:17:11 10° NE
Cosmos 1666 3.5 23:12:36 37° WSW 23:13:34 46° WNW 23:17:16 10° N
Spot 4 3.8 23:12:58 58° S 23:13:56 85° WSW 23:18:46 10° NNW
ARGOS 4.4 23:12:35 20° SW 23:15:33 34° W 23:20:28 10° NNW
Cosmos 1125 Rocket 4.0 23:13:24 10° NNW 23:18:27 51° WSW 23:19:49 40° SSW
CZ-4C R/B 4.4 23:19:23 39° SW 23:20:23 46° W 23:24:40 10° NNW
BREEZE-M DEB (TANK) 4.1 23:05:19 10° WNW 23:22:01 49° SW 23:23:42 40° S
Cosmos 1812 Rocket 3.5 23:26:44 71° ENE 23:26:44 71° ENE 23:30:57 10° NNE
Cosmos 1076 Rocket 4.4 23:22:58 10° N 23:26:43 36° ENE 23:26:43 36° ENE
Cosmos 1763 Rocket 3.8 23:24:49 22° SW 23:27:59 61° WNW 23:33:02 10° NNE
Meteor 1-24 Rocket 3.9 23:22:31 10° N 23:28:35 68° ENE 23:29:59 51° SE
Cosmos 1441 Rocket 3.6 23:27:04 10° N 23:30:33 57° NE 23:30:33 57° NE
Cosmos 1378 4.2 23:28:14 10° N 23:31:10 38° NE 23:31:10 38° NE
DMSP B5D2-2 4.0 23:29:06 10° NNE 23:34:25 84° WNW 23:35:47 52° SSW
Cosmos 405 Rocket 3.7 23:31:25 10° NNW 23:34:54 39° W 23:34:54 39° W
Cosmos 2263 Rocket 2.1 23:31:33 10° NW 23:37:07 71° WSW 23:38:03 59° S
Cosmos 1464 Rocket 4.1 23:38:35 52° SE 23:39:51 62° E 23:46:08 10° NNE
Cosmos 2322 Rocket 2.0 23:42:07 63° S 23:42:54 75° ESE 23:48:34 10° NNE
GP-B 3.5 23:41:58 10° N 23:46:19 54° W 23:46:46 51° WSW
Cosmos 2360 4.5 23:43:37 26° SW 23:46:57 68° NW 23:52:42 10° NNE
Genesis I 3.7 23:43:58 10° NW 23:47:13 57° NW 23:47:13 57° NW
Cosmos 841 Rocket 4.3 23:44:44 21° SW 23:48:00 50° WNW 23:53:06 10° NNE
Lacrosse 5 4.2 23:47:25 10° W 23:49:10 12° WSW 23:49:10 12° WSW
